Content
SEND FEEDBACK

Daily
Averages
Monthly
Summary
French Polynesia

PAPEETE, FRENCH POLYNESIA


Home > Oceania > French Polynesia
Elevation: 7 feet     Latitude: 17 33S     Longitude: 149 36W

WEATHER
 
SELECT A DAY
Number of Records: 208,134;   Date Range: 6/30/96 - 7/23/14
 
SHARE

PRINT THIS DATA

[ ← Previous Day ]
WEATHER ALMANAC - AUGUST 21, 2013
[ Next Day → ]
[ °C ]   °F
Weather ElementAverageHighLow
Temperature79 °F85 °F (2:00 pm)73.4 °F (5:30 am)
Dewpoint68.8 °F71.6 °F (10:30 am)66.2 °F (3:30 am)
Humidity70.2 %83 % (11:00 pm)53 % (2:00 pm)
Barometer29.94 in29.98 in (8:00 am)29.89 in (3:00 pm)
Wind Speed4 mph13.4 mph (2:00 am)
Weather ElementAverage
Visibility7.8 mi
Wind DirectionESE (126.5 °)

Weather ElementTotal
Precipitation---
Cooling Degree Days14.2 (Base 65)
Growing Degree Days29.2 (Base 50)
Averaged from 54 records on August 21, 2013
WEATHER CONDITIONS BREAKOUT
WIND DIRECTION BREAKOUT
WEATHER BY HOUR - AUGUST 21, 2013
[ °C ]   °F
Local TimeTemperatureDewpointHumidityBarometerVisibilityWind DirectionWind SpeedGust SpeedPrecipitationEventsConditions
12:30 AM75.2 °F68.0 °F78 %29.95 in6.2 miEast (90°)4.6 mphPartly Cloudy
1:00 AM75.2 °F68.0 °F78 %29.95 in6.2 miENE (70°)4.6 mphPartly Cloudy
1:30 AM75.2 °F68.0 °F78 %29.95 in6.2 miENE (70°)4.6 mphScattered Clouds
2:00 AM76.0 °F68.0 °F70 %29.94 in12.0 miENE (70°)13.4 mphScattered Clouds
2:00 AM75.2 °F68.0 °F78 %29.92 in6.2 miENE (70°)6.9 mphMostly Cloudy
2:30 AM77.0 °F68.0 °F74 %29.92 in6.2 miENE (70°)4.6 mphMostly Cloudy
3:00 AM77.0 °F68.0 °F74 %29.92 in6.2 miENE (60°)3.5 mphMostly Cloudy
3:30 AM75.2 °F66.2 °F73 %29.92 in6.2 miENE (70°)3.5 mph
4:00 AM75.2 °F66.2 °F73 %29.92 in6.2 miEast (90°)3.5 mph
4:30 AM75.2 °F66.2 °F73 %29.92 in6.2 miEast (80°)3.5 mph
5:00 AM74.0 °F67.0 °F72 %29.94 in37.0 miEast (80°)5.8 mphClear
5:00 AM75.2 °F66.2 °F73 %29.92 in6.2 miEast (80°)5.8 mph
5:30 AM73.4 °F66.2 °F78 %29.92 in6.2 miEast (80°)4.6 mph
6:00 AM73.4 °F66.2 °F78 %29.95 in6.2 miENE (70°)5.8 mphPartly Cloudy
6:30 AM73.4 °F66.2 °F78 %29.95 in6.2 miEast (80°)4.6 mphPartly Cloudy
7:00 AM75.2 °F66.2 °F73 %29.95 in6.2 miEast (100°)3.5 mphPartly Cloudy
7:30 AM78.8 °F66.2 °F65 %29.95 in6.2 miVariable3.5 mphScattered Clouds
8:00 AM80.0 °F69.0 °F60 %29.98 in19.0 miNE (40°)8.9 mphPartly Cloudy
8:00 AM80.6 °F68.0 °F65 %29.98 in6.2 miNE (40°)4.6 mphScattered Clouds
8:30 AM80.6 °F68.0 °F65 %29.98 in6.2 miNNE (30°)4.6 mphScattered Clouds
9:00 AM82.4 °F69.8 °F66 %29.98 in6.2 miNorth (10°)4.6 mphScattered Clouds
9:30 AM82.4 °F69.8 °F66 %29.98 in6.2 miNorth (10°)4.6 mphScattered Clouds
10:00 AM82.4 °F69.8 °F66 %29.98 in6.2 miNorth (10°)5.8 mphPartly Cloudy
10:30 AM84.2 °F71.6 °F66 %29.98 in6.2 miNorth (10°)5.8 mphPartly Cloudy
11:00 AM82.4 °F71.6 °F70 %29.98 in6.2 miNNW (330°)3.5 mphPartly Cloudy
11:30 AM82.4 °F71.6 °F70 %29.98 in6.2 miWNW (290°)3.5 mphScattered Clouds
12:00 PM84.2 °F71.6 °F66 %29.95 in6.2 miWNW (300°)3.5 mphScattered Clouds
12:30 PM84.2 °F69.8 °F62 %29.95 in6.2 miNW (310°)3.5 mphPartly Cloudy
1:00 PM84.2 °F71.6 °F66 %29.92 in6.2 miNW (310°)3.5 mphPartly Cloudy
1:30 PM84.2 °F71.6 °F66 %29.92 in6.2 miWNW (290°)3.5 mphPartly Cloudy
2:00 PM85.0 °F71.0 °F53 %29.92 in19.0 miWNW (290°)3.5 mphScattered Clouds
2:00 PM84.2 °F69.8 °F62 %29.92 in6.2 miWNW (290°)3.5 mphPartly Cloudy
2:30 PM84.2 °F69.8 °F62 %29.92 in6.2 miWest (270°)4.6 mphPartly Cloudy
3:00 PM84.2 °F71.6 °F66 %29.89 in6.2 miWNW (290°)3.5 mphPartly Cloudy
3:30 PM84.2 °F69.8 °F62 %29.89 in6.2 miVariable3.5 mphPartly Cloudy
4:00 PM84.2 °F71.6 °F66 %29.89 in6.2 miNW (320°)3.5 mphPartly Cloudy
4:30 PM82.4 °F71.6 °F70 %29.89 in6.2 miNNW (330°)3.5 mphScattered Clouds
5:00 PM82.0 °F70.0 °F59 %29.92 in19.0 miNNW (340°)3.5 mphScattered Clouds
5:00 PM82.4 °F69.8 °F66 %29.92 in6.2 miVariable3.5 mphMostly Cloudy
5:30 PM80.6 °F69.8 °F70 %29.92 in6.2 miWNW (300°)2.3 mphScattered Clouds
6:00 PM80.6 °F69.8 °F70 %29.92 in6.2 miWSW (240°)2.3 mphScattered Clouds
6:30 PM78.8 °F69.8 °F74 %29.92 in6.2 miSouth (190°)6.9 mphPartly Cloudy
7:00 PM78.8 °F69.8 °F74 %29.92 in6.2 miSouth (170°)3.5 mphPartly Cloudy
7:30 PM78.8 °F68.0 °F69 %29.95 in6.2 miVariable2.3 mphScattered Clouds
8:00 PM78.0 °F68.0 °F64 %29.96 in12.0 miSSE (150°)2.2 mphScattered Clouds
8:00 PM77.0 °F68.0 °F74 %29.95 in6.2 miVariable1.2 mphPartly Cloudy
8:30 PM77.0 °F68.0 °F74 %29.95 in6.2 miCalmPartly Cloudy
9:00 PM77.0 °F68.0 °F74 %29.95 in6.2 miCalmPartly Cloudy
9:30 PM77.0 °F68.0 °F74 %29.95 in6.2 miEast (90°)3.5 mphPartly Cloudy
10:00 PM75.2 °F68.0 °F78 %29.98 in6.2 miEast (100°)4.6 mphPartly Cloudy
10:30 PM75.2 °F68.0 °F78 %29.98 in6.2 miEast (100°)3.5 mphPartly Cloudy
11:00 PM76.0 °F69.0 °F73 %29.98 in12.0 miSSE (150°)1.2 mphScattered Clouds
11:00 PM75.2 °F69.8 °F83 %29.98 in6.2 miVariable1.2 mphPartly Cloudy
11:30 PM75.2 °F68.0 °F78 %29.98 in6.2 miCalmPartly Cloudy
Hourly data recorded from NTAA, located miles away from Papeete, French Polynesia







STORIES FROM OUR PARTNERS